(36294) = 1983 VB6 = 1986 PC = 2000 GS152 = 2001 KH40

Discovered at Socorro on 2000-04-06 by LINEAR.

Orbit

Orbit type: Phocaea

Note: WebGL enabled browser required.

epoch2024-03-31.0
epoch JD2460400.5
perihelion date2022-09-07.15671
perihelion JD2459829.65671
argument of perihelion (°)222.09372
ascending node (°)226.25144
inclination (°)23.40587
eccentricity0.2100055
perihelion distance (AU)1.9426211
Tisserand w.r.t. Jupiter3.3
ΔV w.r.t. Earth (km/sec)11.3
semimajor axis (AU)2.4590310
mean anomaly (°)145.90661
mean daily motion (°/day)0.25559840
aphelion distance (AU)2.975
period (years)3.86
P-vector [x]0.06872488
P-vector [y]0.98802775
P-vector [z]0.13812330
Q-vector [x]-0.95547412
Q-vector [y]0.10501055
Q-vector [z]-0.27575713
absolute magnitude13.39
phase slope0.15
uncertainty0
referenceE2024-G17
observations used3248
oppositions20
arc length (days)10276
first opposition used1996
last opposition used2024
residual rms (arc-secs)0.49
perturbers coarse indicatorM-v
perturbers precise indicator003Ek
first observation date used1996-02-13.0
last observation date used2024-04-03.0
computer nameMPCLINUX
JD of orbit computation2456937.218589
perihelion JD uncertainty (days)5.3547E-05
argument of perihelion uncertainty (°)1.8320E-05
ascending node uncertainty (°)9.0431E-06
inclination uncertainty (°)7.0883E-06
eccentricity uncertainty 4.3274E-08
perihelion distance uncertainty (AU)1.0524E-07
Minimum Orbit Intersection Distances (in AU)
for orbit epoch: 2460400.5, reference: E2024-G17
Mercury1.65295
Venus1.25079
Earth0.99944
Mars0.51871
Jupiter2.47093
Saturn7.11774
Uranus16.0018
Neptune27.5929

Observations

3252 total observations over interval: 1983 11 09.98472 – 2023 07 05.712465
These data are available for download (format description).

Date (UT) J2000 RA J2000 Dec Magn Location Ref
1983 11 09.98472 02 40 27.57 +17 07 26.5 15.4   033 – Karl Schwarzschild Observatory, Tautenburg MPC 8602
1983 11 10.00069 02 40 26.71 +17 07 05.4   033 – Karl Schwarzschild Observatory, Tautenburg MPC 8602
1986 08 01.27986 19 16 15.41 +11 17 32.3 17.2   675 – Palomar Mountain MPC 11011
1986 08 01.32153 19 16 13.51 +11 17 23.3   675 – Palomar Mountain MPC 11011
1996 02 13.55158 08 58 43.56 -26 11 08.1   260 – Siding Spring Observatory-DSS MPS 43173
1996 02 13.59325 08 58 41.21 -26 10 50.2   260 – Siding Spring Observatory-DSS MPS 43173
1998 09 28.17544 21 49 01.92 +20 36 20.4 16.7 R 699 – Lowell Observatory-LONEOS MPS 56027
1998 09 28.19529 21 49 01.39 +20 36 03.7   699 – Lowell Observatory-LONEOS MPS 56027
1998 09 28.21514 21 49 00.83 +20 35 47.1   699 – Lowell Observatory-LONEOS MPS 56027
1998 11 21.10106 22 08 32.34 +09 30 47.9 18.0   704 – Lincoln Laboratory ETS, New Mexico MPS 48756
1998 11 21.10791 22 08 32.94 +09 30 43.8 18.0   704 – Lincoln Laboratory ETS, New Mexico MPS 48756
1998 11 21.11484 22 08 33.24 +09 30 41.2 18.0   704 – Lincoln Laboratory ETS, New Mexico MPS 48756
1998 11 21.12093 22 08 33.65 +09 30 39.1 18.7   704 – Lincoln Laboratory ETS, New Mexico MPS 48756
1998 11 21.12687 22 08 34.13 +09 30 34.5 18.5   704 – Lincoln Laboratory ETS, New Mexico MPS 48756
1998 12 09.06104 22 30 27.21 +07 47 06.2 18.2   704 – Lincoln Laboratory ETS, New Mexico MPS 48756
1998 12 09.07163 22 30 28.06 +07 47 03.5   704 – Lincoln Laboratory ETS, New Mexico MPS 48756
1998 12 09.08226 22 30 28.95 +07 47 00.3   704 – Lincoln Laboratory ETS, New Mexico MPS 48756
1998 12 09.09306 22 30 29.81 +07 46 58.7 17.9   704 – Lincoln Laboratory ETS, New Mexico MPS 48756
1998 12 09.10376 22 30 30.66 +07 46 56.8 17.9   704 – Lincoln Laboratory ETS, New Mexico MPS 48756
1999 01 01.06734 23 05 23.45 +07 06 44.4 17.8 R 699 – Lowell Observatory-LONEOS MPS 48756
1999 01 01.09029 23 05 25.68 +07 06 43.1   699 – Lowell Observatory-LONEOS MPS 48756
1999 01 01.11326 23 05 27.94 +07 06 44.2   699 – Lowell Observatory-LONEOS MPS 48756
1999 12 31.46180 11 07 20.13 -25 31 48.8 16.9   704 – Lincoln Laboratory ETS, New Mexico MPS 43173
1999 12 31.47671 11 07 20.67 -25 32 00.1 17.2   704 – Lincoln Laboratory ETS, New Mexico MPS 43173
1999 12 31.49159 11 07 21.12 -25 32 12.1 17.2   704 – Lincoln Laboratory ETS, New Mexico MPS 43173
1999 12 31.50645 11 07 21.60 -25 32 24.2 17.1   704 – Lincoln Laboratory ETS, New Mexico MPS 43173
1999 12 31.52127 11 07 22.10 -25 32 36.3 17.0   704 – Lincoln Laboratory ETS, New Mexico MPS 43173
2000 04 06.20888 10 28 30.94 -20 58 46.1 17.1   704 – Lincoln Laboratory ETS, New Mexico MPS 14449
2000 04 06.23869 10 28 30.57 -20 58 15.9 17.9   704 – Lincoln Laboratory ETS, New Mexico MPS 14449
2000 04 06.25354 10 28 30.40 -20 58 00.9 18.4   704 – Lincoln Laboratory ETS, New Mexico MPS 14449
2000 04 06.26837 10 28 30.22 -20 57 46.5 18.3   704 – Lincoln Laboratory ETS, New Mexico MPS 14449
2000 04 08.17283 10 28 15.56 -20 25 59.0 16.5 R 699 – Lowell Observatory-LONEOS MPS 14449
2000 04 08.19195 10 28 15.44 -20 25 39.8   699 – Lowell Observatory-LONEOS MPS 14449
2000 04 08.21101 10 28 15.26 -20 25 20.8   699 – Lowell Observatory-LONEOS MPS 14449
2000 04 08.23005 10 28 15.10 -20 25 02.1   699 – Lowell Observatory-LONEOS MPS 14449
2000 05 11.15593 10 39 46.22 -12 46 22.6 18.3   704 – Lincoln Laboratory ETS, New Mexico MPS 34253
2000 05 11.16742 10 39 46.66 -12 46 15.2 17.9   704 – Lincoln Laboratory ETS, New Mexico MPS 34253
2000 05 11.19044 10 39 47.50 -12 45 58.8 18.2   704 – Lincoln Laboratory ETS, New Mexico MPS 34253
2001 05 22.35189 17 56 25.03 -04 12 25.4 19.4   704 – Lincoln Laboratory ETS, New Mexico MPS 31371
2001 05 22.36236 17 56 24.47 -04 12 18.8 18.7   704 – Lincoln Laboratory ETS, New Mexico MPS 31371
2001 05 22.38235 17 56 23.53 -04 12 08.4 19.2   704 – Lincoln Laboratory ETS, New Mexico MPS 31371
2001 05 25.33526 17 54 09.40 -03 47 17.7 18.5   704 – Lincoln Laboratory ETS, New Mexico MPS 31371
2001 05 25.34699 17 54 08.80 -03 47 11.6 18.6   704 – Lincoln Laboratory ETS, New Mexico MPS 31371
2001 05 25.35808 17 54 08.26 -03 47 05.8 18.1   704 – Lincoln Laboratory ETS, New Mexico MPS 31371
2001 05 25.36922 17 54 07.71 -03 47 00.0 18.1   704 – Lincoln Laboratory ETS, New Mexico MPS 31371
2001 07 16.37027 17 09 51.12 -00 05 52.4 19.7   608 – Haleakala-AMOS MPS 34253
2001 07 16.38093 17 09 50.72 -00 05 52.8 19.5   608 – Haleakala-AMOS MPS 34253
2001 07 16.39142 17 09 50.36 -00 05 53.1 19.7   608 – Haleakala-AMOS MPS 34253
2002 06 14.37374 23 25 07.72 +21 20 11.5 17.8   704 – Lincoln Laboratory ETS, New Mexico MPS 58538
2002 06 14.38683 23 25 08.45 +21 20 20.6 18.1   704 – Lincoln Laboratory ETS, New Mexico MPS 58538
2002 06 14.40070 23 25 09.22 +21 20 29.8 18.0   704 – Lincoln Laboratory ETS, New Mexico MPS 58538
2002 06 14.41487 23 25 10.05 +21 20 39.2 18.0   704 – Lincoln Laboratory ETS, New Mexico MPS 58538
2002 08 01.31591 23 52 27.09 +29 10 55.7 17.5   704 – Lincoln Laboratory ETS, New Mexico MPS 60654
2002 08 01.33076 23 52 27.14 +29 11 02.1 17.6   704 – Lincoln Laboratory ETS, New Mexico MPS 60654
2002 08 01.34562 23 52 27.23 +29 11 07.9 17.7   704 – Lincoln Laboratory ETS, New Mexico MPS 60654
2002 08 01.36049 23 52 27.25 +29 11 14.0 18.0   704 – Lincoln Laboratory ETS, New Mexico MPS 60654
2002 08 01.37536 23 52 27.31 +29 11 20.8 17.9   704 – Lincoln Laboratory ETS, New Mexico MPS 60654
2002 08 16.37828 23 50 44.36 +30 25 49.6 16.8 R 699 – Lowell Observatory-LONEOS MPS 60654
2002 08 16.39515 23 50 43.99 +30 25 52.5   699 – Lowell Observatory-LONEOS MPS 60654
2002 08 16.41199 23 50 43.66 +30 25 55.7   699 – Lowell Observatory-LONEOS MPS 60654
2002 08 16.42881 23 50 43.32 +30 25 58.2   699 – Lowell Observatory-LONEOS MPS 60654
2002 08 17.30621 23 50 26.68 +30 28 24.1 18.0   704 – Lincoln Laboratory ETS, New Mexico MPS 60654
2002 08 17.32154 23 50 26.28 +30 28 27.6 18.7   704 – Lincoln Laboratory ETS, New Mexico MPS 60654
2002 08 17.33691 23 50 25.93 +30 28 30.7 18.2   704 – Lincoln Laboratory ETS, New Mexico MPS 60654
2002 08 17.35233 23 50 25.61 +30 28 32.7 18.7   704 – Lincoln Laboratory ETS, New Mexico MPS 60654
2002 08 17.36745 23 50 25.19 +30 28 35.4 18.0   704 – Lincoln Laboratory ETS, New Mexico MPS 60654
2002 08 28.32270 23 45 16.50 +30 37 08.6 17.4   704 – Lincoln Laboratory ETS, New Mexico MPS 62353
2002 08 28.33584 23 45 15.94 +30 37 07.6 17.9   704 – Lincoln Laboratory ETS, New Mexico MPS 62353
2002 08 28.34875 23 45 15.47 +30 37 06.6 17.7   704 – Lincoln Laboratory ETS, New Mexico MPS 62353
2002 08 28.36159 23 45 14.99 +30 37 05.4 17.4   704 – Lincoln Laboratory ETS, New Mexico MPS 62353
2002 08 28.37551 23 45 14.38 +30 37 04.6 17.4   704 – Lincoln Laboratory ETS, New Mexico MPS 62353
2002 09 15.27557 23 31 49.75 +29 08 44.8 16.3 R 699 – Lowell Observatory-LONEOS MPS 62353
2002 09 15.29136 23 31 48.91 +29 08 36.3   699 – Lowell Observatory-LONEOS MPS 62353
2002 09 15.30705 23 31 48.07 +29 08 28.2   699 – Lowell Observatory-LONEOS MPS 62353
2002 09 15.32276 23 31 47.23 +29 08 19.9   699 – Lowell Observatory-LONEOS MPS 62353
2002 09 20.26007 23 27 35.89 +28 19 48.8 16.1   644 – Palomar Mountain/NEAT MPS 65055
2002 09 20.29616 23 27 33.98 +28 19 25.5 16.0   644 – Palomar Mountain/NEAT MPS 65055
2002 09 20.33057 23 27 32.15 +28 19 03.0 16.1   644 – Palomar Mountain/NEAT MPS 65055
2002 09 27.22927 23 21 49.53 +26 54 52.3 15.8   644 – Palomar Mountain/NEAT MPS 65055
2002 09 27.25879 23 21 48.03 +26 54 28.6 15.8   644 – Palomar Mountain/NEAT MPS 65055
2002 09 27.29541 23 21 46.15 +26 53 59.0 15.6   644 – Palomar Mountain/NEAT MPS 65055
2002 09 28.22605 23 21 02.06 +26 41 16.6 16.0   644 – Palomar Mountain/NEAT MPS 65055
2002 09 28.25255 23 21 00.75 +26 40 54.8 16.0   644 – Palomar Mountain/NEAT MPS 65055
2002 09 28.29008 23 20 58.89 +26 40 23.7 15.9   644 – Palomar Mountain/NEAT MPS 65055
2002 10 05.18848 23 15 55.61 +24 57 44.2 16.0 R 699 – Lowell Observatory-LONEOS MPS 65055
2002 10 05.20609 23 15 54.87 +24 57 27.4   699 – Lowell Observatory-LONEOS MPS 65055
2002 10 05.22363 23 15 54.11 +24 57 10.8   699 – Lowell Observatory-LONEOS MPS 65055
